SCP
0 0 0 0 0 0 -0 -0 0 0 0 -0 -0 -0 -0 -0 -0 -0 -0 -0 0 -0 -0 -0 -0 -0 -0 -0 -0 -0 -0 -0 -0 0 0 0 0 0 0 0 0 0 0
0 0 0 -0 -0 -0 -0 -0 0 0 0 -0 -0 -0 -0 -0 -0 -0 -0 -0 -0 -0 -0 -0 -0 -0 -0 0 0 0 0 0 0 0 0 0 0 0 0 0 0 0 0
0 0 0 -0 -0 -0 -0 -0 -0 -0 -0 -0 -0 -0 -0 -0 -0 -0 -0 -0 -0 -0 -0 -0 -0 0 0 0 0 -0 -0 -0 0 0 0 0 0 0 0 0 0 0 0
0 0 0 -0 -0 -0 -0 -0 -0 -0 -0 -0 -0 -0 -0 -0 -0 -0 -0 -0 -0 -0 -0 -0 -0 -0 0 0 0 0 0 -0 0 0 0 0 0 0 0 0 0 0 0
0 0 0 -0 -0 -0 -0 -0 -0 -0 -0 -0 -0 -0 -0 -0 -0 0 -0 -0 -0 -0 -0 -0 -0 0 0 0 0 -0 -0 -0 0 0 0 0 0 0 0 0 0 0 0
0 0 0 -0 -0 -0 -0 -0 -0 -0 -0 -0 -0 -0 -0 -0 -0 0 0 0 -0 -0 -0 -0 -0 0 0 0 0 0 0 -0 0 0 0 0 0 0 0 0 0 0 0
0 0 0 -0 -0 -0 -0 -0 -0 -0 -0 -0 -0 -0 -0 -0 -0 -0 -0 -0 -0 0 -0 -0 -0 -0 0 0 0 0 0 0 0 0 0 0 0 0 0 0 0 0 0
0 0 0 0 -0 -0 -0 -0 -0 -0 -0 -0 -0 -0 -0 -0 -0 -0 -0 -0 -0 -0 -0 -0 -0 0 0 0 0 0 0 0 0 0 0 0 0 0 0 0 0 0 0
0 0 0 0 0 0 -0 -0 -0 -0 -0 -0 -0 -0 -0 -0 -0 -0 -0 -0 0 0 0 0 -0 0 0 0 0 0 0 0 0 0 0 0 0 0 0 0 0 0 0
0 0 0 0 0 0 0 0 -0 -0 -0 -0 -0 -0 -0 -0 -0 -0 -0 -0 -0 0 0 0 0 0 0 0 0 0 0 0 0 0 0 0 0 0 0 0 0 0 0
0 0 0 0 0 0 0 0 0 0 0 0 -0 -0 -0 -0 -0 -0 -0 0 0 0 0 0 0 0 0 0 0 0 0 0 0 0 0 0 0 0 0 0 0 0 0
0 0 0 0 0 0 0 0 0 0 0 0 0 0 0 0 0 0 0 0 0 0 0 0 0 0 0 0 0 0 0 0 0 0 0 0 0 0 0 0 0 0 0
0 0 0 0 0 0 0 0 0 0 0 0 0 0 0 0 0 0 0 0 0 0 0 0 0 0 0 0 0 0 0 0 0 0 0 0 0 0 0 0 0 0 0
0 0 0 0 0 0 0 0 0 0 0 0 0 0 0 0 0 0 0 0 0 0 0 0 0 0 0 0 0 0 0 0 0 0 0 0 0 0 0 0 0 0 0
0 0 0 0 0 0 0 0 0 0 0 0 0 0 0 0 0 0 0 0 0 0 0 0 0 0 0 0 0 0 0 0 0 0 0 0 0 0 0 0 0 0 0
0 0 0 0 0 0 0 0 0 0 0 0 0 0 0 0 0 0 0 0 0 0 0 0 0 0 0 0 0 0 0 0 0 0 0 0 0 0 0 0 0 0 0
0 0 0 0 0 0 0 0 0 0 0 0 0 0 0 0 0 0 0 0 0 0 0 0 0 0 0 0 0 0 0 0 0 0 0 0 0 0 0 0 0 0 0
0 0 0 0 0 0 0 0 0 0 0 0 0 0 0 0 0 0 0 0 0 0 0 0 0 0 0 0 0 0 0 0 0 0 0 0 0 0 0 0 0 0 0
0 0 0 0 0 0 0 0 0 0 0 0 0 0 0 0 0 0 0 0 0 0 0 0 0 0 0 0 0 0 0 0 0 0 0 0 0 0 0 0 0 0 0
0 0 0 0 0 0 0 0 0 0 0 0 0 0 0 0 0 0 0 0 0 0 0 0 0 0 0 0 0 0 0 0 0 0 0 0 0 0 0 0 0 0 0
0 0 0 0 0 0 0 0 0 0 0 0 0 0 0 0 0 0 0 0 0 0 0 0 0 0 0 0 0 0 0 0 0 0 0 0 0 0 0 0 0 0 0
0 0 0 0 0 0 0 0 0 0 0 0 0 0 0 0 0 0 0 0 0 0 0 0 0 0 0 0 0 0 0 0 0 0 0 0 0 0 0 0 0 0 0
0 0 0 0 0 0 0 0 0 0 0 0 0 0 0 0 0 0 0 0 0 0 0 0 0 0 0 0 0 0 0 0 0 0 0 0 0 0 0 0 0 0 0
0 0 0 0 0 0 0 0 0 0 0 0 0 0 0 0 0 0 0 0 0 0 0 0 0 0 0 0 0 0 0 0 0 0 0 0 0 0 0 0 0 0 0
0 0 0 0 0 0 0 0 0 0 0 0 0 0 0 0 0 0 0 0 0 0 0 0 0 0 0 0 0 0 0 0 0 0 0 0 0 0 0 0 0 0 0
0 0 0 0 0 0 0 0 0 0 0 0 0 0 0 0 0 0 0 0 0 0 0 0 0 0 0 0 0 0 0 0 0 0 0 0 0 0 0 0 0 0 0
Wind_Speed_500mb
36 33 34 32 37 37 32 32 28 27 31 34 34 37 39 37 31 32 37 38 34 33 33 31 31 34 40 39 38 34 30 31 31 30 27 27 25 25 27 30 32 33 34
45 38 36 34 38 37 34 30 25 25 28 32 29 30 31 31 28 25 23 23 24 26 29 27 31 34 36 35 33 29 25 24 25 25 24 24 20 18 21 24 27 29 30
43 40 36 36 39 39 35 29 25 22 25 25 25 25 26 23 22 20 17 18 19 22 27 27 29 30 30 30 28 26 22 22 23 22 20 16 12 12 16 20 23 24 25
47 41 37 37 40 40 37 31 26 22 22 21 21 22 21 20 22 22 19 22 21 23 25 25 25 25 25 24 23 21 20 17 22 22 21 18 16 18 17 18 20 22 23
48 40 37 37 39 38 38 32 27 22 20 20 20 19 19 19 20 22 21 21 21 21 22 23 22 22 21 21 22 20 17 11 12 14 13 18 16 18 18 17 18 20 20
49 42 39 37 38 39 38 33 26 23 20 18 19 18 18 19 18 19 19 17 15 16 19 20 20 20 20 20 20 18 16 14 14 15 14 16 14 10 15 17 17 17 17
53 45 40 36 36 38 39 36 30 25 21 18 17 18 17 17 16 16 15 15 14 12 13 16 16 16 17 16 16 13 10 8 8 12 12 13 12 12 15 17 18 18 18
54 47 41 36 34 35 35 33 30 26 24 22 19 18 17 16 15 15 12 12 12 11 10 11 11 12 13 13 12 9 7 4 4 6 9 12 13 14 16 17 18 18 17
49 46 42 39 36 34 33 31 28 22 23 24 23 18 16 15 14 15 13 11 10 11 9 9 8 7 7 8 8 6 4 3 3 6 6 10 13 16 17 17 17 17 16
45 47 43 40 38 36 34 31 28 22 19 18 22 17 16 14 11 13 14 13 11 10 11 9 10 9 7 6 6 6 6 7 8 10 11 10 13 16 18 19 20 19 18
47 51 48 43 39 36 32 30 28 25 22 21 23 21 16 11 9 9 10 11 11 11 12 13 13 13 13 12 11 11 11 13 13 14 15 16 16 17 20 23 23 23 23
52 53 53 47 42 38 35 32 31 29 28 26 26 24 19 15 13 11 11 11 7 5 6 11 14 16 16 16 16 17 17 18 17 16 18 20 21 22 23 26 27 29 29
47 49 49 51 46 42 39 35 34 32 29 29 28 27 24 22 20 19 12 12 11 10 11 13 13 14 17 18 20 19 19 21 21 22 23 25 27 28 28 30 31 32 33
49 46 45 47 50 45 40 38 35 35 33 32 29 28 28 28 25 21 17 16 18 18 14 14 15 16 16 17 18 19 21 23 24 26 27 29 32 33 34 35 37 38 38
51 46 46 44 47 46 43 39 37 36 36 32 31 30 30 31 29 25 22 21 21 21 19 19 18 18 19 19 19 21 21 22 25 27 29 30 32 35 37 37 39 40 40
51 48 51 50 47 48 47 43 39 36 33 36 35 33 32 32 32 31 29 28 27 27 25 25 25 24 23 24 23 24 24 25 27 28 28 28 29 32 35 37 38 39 39
53 48 52 52 49 49 49 44 41 38 38 39 38 36 36 35 34 35 36 34 32 32 30 30 29 30 30 29 30 29 31 29 30 30 30 30 31 32 34 35 37 38 37
47 49 46 48 51 48 54 53 49 46 45 43 42 40 38 37 37 38 39 38 35 36 36 35 33 35 34 34 34 32 34 33 33 33 34 34 36 39 38 35 34 31 31
43 42 44 42 43 44 44 51 56 54 53 51 48 47 47 45 44 44 44 39 37 40 41 40 39 38 37 36 37 36 35 36 36 36 36 39 41 41 35 24 23 26 28
41 40 39 40 39 41 41 43 47 57 59 58 57 56 55 54 52 52 51 47 43 45 46 46 44 41 42 41 41 40 39 37 32 32 34 40 36 28 29 30 27 28 31
39 40 41 44 44 45 49 50 50 51 51 54 56 59 61 62 63 63 60 56 53 53 50 48 46 45 43 36 35 41 42 36 32 34 25 25 34 39 34 36 34 36 40
45 45 44 45 46 47 50 50 51 48 51 48 47 48 48 51 53 53 58 63 62 59 57 55 50 51 48 40 39 42 39 39 39 27 37 49 44 34 38 41 41 45 39
53 55 54 52 52 51 52 49 52 52 57 55 53 51 51 50 51 51 53 55 59 61 65 62 57 56 55 49 46 38 19 18 34 47 48 54 43 42 44 37 37 35 38
39 58 62 67 69 65 61 60 61 60 61 58 52 48 49 46 42 39 40 49 56 57 56 58 64 60 55 55 50 50 51 54 52 39 52 64 54 43 42 36 29 30 26
40 38 34 50 59 63 67 69 70 69 66 61 55 53 49 46 43 41 41 42 44 48 54 50 45 53 58 54 55 53 51 54 45 40 61 64 54 48 43 35 31 22 22
35 39 43 46 47 55 59 60 66 69 66 62 58 57 54 49 44 41 40 40 40 43 46 46 45 45 49 50 51 53 55 47 41 32 40 58 62 60 55 45 29 24 16
Wind_Direction_500mb
171 168 162 157 147 140 139 142 137 131 123 122 123 121 117 115 115 108 106 105 106 114 119 113 108 107 110 108 105 105 98 94 92 85 85 82 76 72 60 49 46 48 52
161 166 163 157 151 149 147 146 143 138 133 129 134 129 125 133 133 124 115 121 128 121 119 116 111 111 110 108 108 108 105 100 94 85 87 86 81 70 57 50 46 48 52
168 165 163 158 158 154 152 150 147 145 140 135 136 133 128 130 144 140 117 112 125 111 104 106 105 112 114 117 114 105 97 90 102 87 84 75 71 65 59 50 47 48 53
171 165 164 161 162 158 156 152 149 149 148 144 142 141 139 130 126 135 128 109 110 111 109 106 107 113 118 123 124 115 101 85 83 68 80 66 52 58 56 55 48 49 49
171 167 166 164 164 164 157 157 161 162 152 152 152 148 143 142 129 131 134 137 122 115 112 111 111 115 119 122 127 128 127 111 88 72 66 61 62 60 51 49 46 45 46
173 170 168 166 166 167 160 163 174 166 160 149 149 156 150 152 144 133 139 145 138 122 122 117 116 115 116 119 128 127 123 112 87 75 68 63 63 45 40 37 38 37 38
176 172 171 168 168 171 171 171 180 176 170 162 155 159 159 158 156 146 142 145 144 139 128 126 121 117 116 121 132 134 126 112 79 67 59 58 52 26 25 25 29 30 30
178 174 173 171 172 176 180 182 185 180 177 175 166 165 165 168 166 169 167 154 157 158 150 144 136 126 122 124 132 144 139 121 71 37 49 44 31 23 16 13 17 18 19
186 179 177 176 176 179 183 188 193 196 178 186 179 179 185 177 178 183 187 181 183 179 182 184 173 162 144 138 140 154 193 240 331 342 354 357 356 0 355 353 357 359 3
193 188 185 185 185 186 187 190 194 197 196 192 186 186 175 178 192 196 199 199 208 211 207 213 211 215 212 205 202 203 218 256 286 307 321 329 333 335 338 336 336 336 340
199 193 193 193 192 193 195 197 200 200 198 197 196 203 203 195 187 178 198 213 222 235 238 233 236 235 236 238 242 247 252 258 270 284 298 305 312 313 317 320 319 318 320
197 193 196 198 199 199 202 205 209 208 205 204 208 215 217 219 217 202 198 206 207 217 246 256 254 251 253 255 257 261 264 270 273 276 288 298 299 299 303 305 306 307 308
198 200 200 201 203 206 209 211 215 217 217 215 216 219 220 226 228 225 220 232 256 273 267 256 260 258 254 259 262 266 270 274 280 286 290 293 293 294 296 298 299 300 299
204 205 209 209 207 209 212 218 221 223 223 223 225 228 228 234 236 243 244 256 268 274 276 264 268 261 263 266 272 274 277 279 283 287 290 291 289 290 293 295 296 297 296
214 213 212 212 209 210 214 217 221 224 229 232 235 235 237 240 244 250 257 262 272 269 270 272 271 270 269 272 273 278 284 291 292 293 292 291 292 294 296 296 295 295 295
220 224 222 211 217 216 221 221 222 226 232 233 236 238 239 241 245 253 260 266 267 269 267 270 276 279 281 282 284 287 290 289 291 291 291 292 294 294 295 294 293 291 291
223 222 226 227 222 221 225 230 231 231 235 235 237 238 241 244 246 252 257 259 262 266 269 272 277 279 281 284 286 288 292 295 294 295 297 297 300 298 296 294 295 295 294
228 228 225 228 232 234 225 231 235 237 240 242 242 245 248 249 250 251 254 257 261 263 267 269 272 273 276 277 281 286 288 289 291 292 294 301 303 301 297 295 291 292 297
224 220 220 224 229 233 235 234 236 240 243 247 248 250 253 254 257 258 259 260 258 260 263 266 268 270 271 276 281 280 280 283 286 293 302 304 299 297 296 292 292 302 306
231 232 231 232 233 230 233 236 236 238 241 243 247 249 252 255 258 260 262 261 260 259 261 263 267 267 269 272 273 277 280 281 289 303 307 302 301 300 297 291 290 295 306
230 235 236 235 236 234 233 234 236 241 245 244 244 246 249 250 252 253 255 257 256 257 260 262 264 266 266 272 286 286 290 292 301 309 307 309 308 303 303 304 296 297 304
236 241 243 247 245 246 246 249 252 258 260 261 262 261 260 256 255 253 251 252 253 255 256 255 254 256 262 262 265 279 294 294 303 307 305 300 307 302 301 300 293 293 295
235 238 243 251 257 258 256 255 254 254 256 256 257 260 262 267 272 266 260 255 255 252 252 253 254 251 260 265 265 258 273 260 289 294 295 298 301 302 300 298 294 289 289
244 241 239 240 243 247 252 254 256 260 263 267 272 275 275 272 274 275 269 261 258 255 253 256 250 250 257 262 265 263 262 270 276 291 291 296 299 302 304 308 304 296 289
245 249 250 241 240 241 244 248 253 257 262 266 267 269 270 270 271 270 265 262 263 257 254 253 260 248 253 258 263 269 270 271 274 277 286 293 300 305 310 311 320 316 303
237 243 244 238 236 238 241 246 251 254 258 262 264 262 265 269 268 264 257 258 260 254 251 252 255 254 254 257 262 264 266 265 271 272 277 290 298 304 307 310 315 321 305
Wind_Speed_850mb
36 33 34 32 37 37 32 32 28 27 31 34 34 37 39 37 31 32 37 38 34 33 33 31 31 34 40 39 38 34 30 31 31 30 27 27 25 25 27 30 32 33 34
45 38 36 34 38 37 34 30 25 25 28 32 29 30 31 31 28 25 23 23 24 26 29 27 31 34 36 35 33 29 25 24 25 25 24 24 20 18 21 24 27 29 30
43 40 36 36 39 39 35 29 25 22 25 25 25 25 26 23 22 20 17 18 19 22 27 27 29 30 30 30 28 26 22 22 23 22 20 16 12 12 16 20 23 24 25
47 41 37 37 40 40 37 31 26 22 22 21 21 22 21 20 22 22 19 22 21 23 25 25 25 25 25 24 23 21 20 17 22 22 21 18 16 18 17 18 20 22 23
48 40 37 37 39 38 38 32 27 22 20 20 20 19 19 19 20 22 21 21 21 21 22 23 22 22 21 21 22 20 17 11 12 14 13 18 16 18 18 17 18 20 20
49 42 39 37 38 39 38 33 26 23 20 18 19 18 18 19 18 19 19 17 15 16 19 20 20 20 20 20 20 18 16 14 14 15 14 16 14 10 15 17 17 17 17
53 45 40 36 36 38 39 36 30 25 21 18 17 18 17 17 16 16 15 15 14 12 13 16 16 16 17 16 16 13 10 8 8 12 12 13 12 12 15 17 18 18 18
54 47 41 36 34 35 35 33 30 26 24 22 19 18 17 16 15 15 12 12 12 11 10 11 11 12 13 13 12 9 7 4 4 6 9 12 13 14 16 17 18 18 17
49 46 42 39 36 34 33 31 28 22 23 24 23 18 16 15 14 15 13 11 10 11 9 9 8 7 7 8 8 6 4 3 3 6 6 10 13 16 17 17 17 17 16
45 47 43 40 38 36 34 31 28 22 19 18 22 17 16 14 11 13 14 13 11 10 11 9 10 9 7 6 6 6 6 7 8 10 11 10 13 16 18 19 20 19 18
47 51 48 43 39 36 32 30 28 25 22 21 23 21 16 11 9 9 10 11 11 11 12 13 13 13 13 12 11 11 11 13 13 14 15 16 16 17 20 23 23 23 23
52 53 53 47 42 38 35 32 31 29 28 26 26 24 19 15 13 11 11 11 7 5 6 11 14 16 16 16 16 17 17 18 17 16 18 20 21 22 23 26 27 29 29
47 49 49 51 46 42 39 35 34 32 29 29 28 27 24 22 20 19 12 12 11 10 11 13 13 14 17 18 20 19 19 21 21 22 23 25 27 28 28 30 31 32 33
49 46 45 47 50 45 40 38 35 35 33 32 29 28 28 28 25 21 17 16 18 18 14 14 15 16 16 17 18 19 21 23 24 26 27 29 32 33 34 35 37 38 38
51 46 46 44 47 46 43 39 37 36 36 32 31 30 30 31 29 25 22 21 21 21 19 19 18 18 19 19 19 21 21 22 25 27 29 30 32 35 37 37 39 40 40
51 48 51 50 47 48 47 43 39 36 33 36 35 33 32 32 32 31 29 28 27 27 25 25 25 24 23 24 23 24 24 25 27 28 28 28 29 32 35 37 38 39 39
53 48 52 52 49 49 49 44 41 38 38 39 38 36 36 35 34 35 36 34 32 32 30 30 29 30 30 29 30 29 31 29 30 30 30 30 31 32 34 35 37 38 37
47 49 46 48 51 48 54 53 49 46 45 43 42 40 38 37 37 38 39 38 35 36 36 35 33 35 34 34 34 32 34 33 33 33 34 34 36 39 38 35 34 31 31
43 42 44 42 43 44 44 51 56 54 53 51 48 47 47 45 44 44 44 39 37 40 41 40 39 38 37 36 37 36 35 36 36 36 36 39 41 41 35 24 23 26 28
41 40 39 40 39 41 41 43 47 57 59 58 57 56 55 54 52 52 51 47 43 45 46 46 44 41 42 41 41 40 39 37 32 32 34 40 36 28 29 30 27 28 31
39 40 41 44 44 45 49 50 50 51 51 54 56 59 61 62 63 63 60 56 53 53 50 48 46 45 43 36 35 41 42 36 32 34 25 25 34 39 34 36 34 36 40
45 45 44 45 46 47 50 50 51 48 51 48 47 48 48 51 53 53 58 63 62 59 57 55 50 51 48 40 39 42 39 39 39 27 37 49 44 34 38 41 41 45 39
53 55 54 52 52 51 52 49 52 52 57 55 53 51 51 50 51 51 53 55 59 61 65 62 57 56 55 49 46 38 19 18 34 47 48 54 43 42 44 37 37 35 38
39 58 62 67 69 65 61 60 61 60 61 58 52 48 49 46 42 39 40 49 56 57 56 58 64 60 55 55 50 50 51 54 52 39 52 64 54 43 42 36 29 30 26
40 38 34 50 59 63 67 69 70 69 66 61 55 53 49 46 43 41 41 42 44 48 54 50 45 53 58 54 55 53 51 54 45 40 61 64 54 48 43 35 31 22 22
35 39 43 46 47 55 59 60 66 69 66 62 58 57 54 49 44 41 40 40 40 43 46 46 45 45 49 50 51 53 55 47 41 32 40 58 62 60 55 45 29 24 16
Wind_Direction_850mb
171 168 162 157 147 140 139 142 137 131 123 122 123 121 117 115 115 108 106 105 106 114 119 113 108 107 110 108 105 105 98 94 92 85 85 82 76 72 60 49 46 48 52
161 166 163 157 151 149 147 146 143 138 133 129 134 129 125 133 133 124 115 121 128 121 119 116 111 111 110 108 108 108 105 100 94 85 87 86 81 70 57 50 46 48 52
168 165 163 158 158 154 152 150 147 145 140 135 136 133 128 130 144 140 117 112 125 111 104 106 105 112 114 117 114 105 97 90 102 87 84 75 71 65 59 50 47 48 53
171 165 164 161 162 158 156 152 149 149 148 144 142 141 139 130 126 135 128 109 110 111 109 106 107 113 118 123 124 115 101 85 83 68 80 66 52 58 56 55 48 49 49
171 167 166 164 164 164 157 157 161 162 152 152 152 148 143 142 129 131 134 137 122 115 112 111 111 115 119 122 127 128 127 111 88 72 66 61 62 60 51 49 46 45 46
173 170 168 166 166 167 160 163 174 166 160 149 149 156 150 152 144 133 139 145 138 122 122 117 116 115 116 119 128 127 123 112 87 75 68 63 63 45 40 37 38 37 38
176 172 171 168 168 171 171 171 180 176 170 162 155 159 159 158 156 146 142 145 144 139 128 126 121 117 116 121 132 134 126 112 79 67 59 58 52 26 25 25 29 30 30
178 174 173 171 172 176 180 182 185 180 177 175 166 165 165 168 166 169 167 154 157 158 150 144 136 126 122 124 132 144 139 121 71 37 49 44 31 23 16 13 17 18 19
186 179 177 176 176 179 183 188 193 196 178 186 179 179 185 177 178 183 187 181 183 179 182 184 173 162 144 138 140 154 193 240 331 342 354 357 356 0 355 353 357 359 3
193 188 185 185 185 186 187 190 194 197 196 192 186 186 175 178 192 196 199 199 208 211 207 213 211 215 212 205 202 203 218 256 286 307 321 329 333 335 338 336 336 336 340
199 193 193 193 192 193 195 197 200 200 198 197 196 203 203 195 187 178 198 213 222 235 238 233 236 235 236 238 242 247 252 258 270 284 298 305 312 313 317 320 319 318 320
197 193 196 198 199 199 202 205 209 208 205 204 208 215 217 219 217 202 198 206 207 217 246 256 254 251 253 255 257 261 264 270 273 276 288 298 299 299 303 305 306 307 308
198 200 200 201 203 206 209 211 215 217 217 215 216 219 220 226 228 225 220 232 256 273 267 256 260 258 254 259 262 266 270 274 280 286 290 293 293 294 296 298 299 300 299
204 205 209 209 207 209 212 218 221 223 223 223 225 228 228 234 236 243 244 256 268 274 276 264 268 261 263 266 272 274 277 279 283 287 290 291 289 290 293 295 296 297 296
214 213 212 212 209 210 214 217 221 224 229 232 235 235 237 240 244 250 257 262 272 269 270 272 271 270 269 272 273 278 284 291 292 293 292 291 292 294 296 296 295 295 295
220 224 222 211 217 216 221 221 222 226 232 233 236 238 239 241 245 253 260 266 267 269 267 270 276 279 281 282 284 287 290 289 291 291 291 292 294 294 295 294 293 291 291
223 222 226 227 222 221 225 230 231 231 235 235 237 238 241 244 246 252 257 259 262 266 269 272 277 279 281 284 286 288 292 295 294 295 297 297 300 298 296 294 295 295 294
228 228 225 228 232 234 225 231 235 237 240 242 242 245 248 249 250 251 254 257 261 263 267 269 272 273 276 277 281 286 288 289 291 292 294 301 303 301 297 295 291 292 297
224 220 220 224 229 233 235 234 236 240 243 247 248 250 253 254 257 258 259 260 258 260 263 266 268 270 271 276 281 280 280 283 286 293 302 304 299 297 296 292 292 302 306
231 232 231 232 233 230 233 236 236 238 241 243 247 249 252 255 258 260 262 261 260 259 261 263 267 267 269 272 273 277 280 281 289 303 307 302 301 300 297 291 290 295 306
230 235 236 235 236 234 233 234 236 241 245 244 244 246 249 250 252 253 255 257 256 257 260 262 264 266 266 272 286 286 290 292 301 309 307 309 308 303 303 304 296 297 304
236 241 243 247 245 246 246 249 252 258 260 261 262 261 260 256 255 253 251 252 253 255 256 255 254 256 262 262 265 279 294 294 303 307 305 300 307 302 301 300 293 293 295
235 238 243 251 257 258 256 255 254 254 256 256 257 260 262 267 272 266 260 255 255 252 252 253 254 251 260 265 265 258 273 260 289 294 295 298 301 302 300 298 294 289 289
244 241 239 240 243 247 252 254 256 260 263 267 272 275 275 272 274 275 269 261 258 255 253 256 250 250 257 262 265 263 262 270 276 291 291 296 299 302 304 308 304 296 289
245 249 250 241 240 241 244 248 253 257 262 266 267 269 270 270 271 270 265 262 263 257 254 253 260 248 253 258 263 269 270 271 274 277 286 293 300 305 310 311 320 316 303
237 243 244 238 236 238 241 246 251 254 258 262 264 262 265 269 268 264 257 258 260 254 251 252 255 254 254 257 262 264 266 265 271 272 277 290 298 304 307 310 315 321 305